Location: Poughquag
(41.6090°N, 73.6820°W)
Time: 09:18:34
(UTC-05:00)

Vanguard 1 - Pass Details

Date: 02 December 2023
Orbit: 653 x 3826 km, 34.3° (Epoch: 25 February)

Event Time Altitude Azimuth Distance (km) Brightness Sun altitude
Rises 00:17:00 0° 283° (WNW) 7,811 14.6 -69.1°
Reaches altitude 10° 00:22:34 10° 278° (W) 6,904 14.2 -68.7°
Enters shadow 00:23:12 11° 277° (W) 6,803 14.2 -68.6°
Maximum altitude 00:43:32 44° 216° (SW) 4,292 - -66.7°
Drops below altitude 10° 00:59:18 10° 151° (SSE) 5,277 - -64.7°
Sets 01:02:55 0° 144° (SE) 5,912 - -64.3°
